Location: NJAA Observatory
(40.6819°N, 74.8979°W)
Time: 11:53:35
(UTC-04:00)

Iridium 4 - Visible Passes

Search period start: 19 June 2018 00:00
Search period end: 29 June 2018 00:00
Orbit: 773 x 776 km, 86.4° (Epoch: 18 June)

Date Brightness Start Highest point End Pass type
(mag) Time Alt. Az. Time Alt. Az. Time Alt. Az.
20 Jun 8.3 04:30:00 10° NNE 04:33:34 18° ENE 04:37:07 10° ESE visible
23 Jun 7.9 04:26:34 10° NNE 04:30:48 25° ENE 04:35:00 10° SE visible
24 Jun 8.4 03:53:30 10° NE 03:55:56 13° ENE 03:58:22 10° E visible
26 Jun 7.3 04:23:18 10° NNE 04:27:59 33° E 04:32:38 10° SE visible
27 Jun 8.2 03:49:41 10° NNE 03:53:12 18° ENE 03:56:41 10° ESE visible
28 Jun 5.7 04:54:28 10° N 04:59:43 84° E 05:04:55 10° S visible
